Location: Sternwarte Hubelmatt
(47.0367°N, 8.3053°E)
Time: 21:04:37
(UTC+02:00)

UWE-3 - Pass Details

Date: 30 April 2024
Orbit: 569 x 652 km, 97.8° (Epoch: 19 May)

Event Time Altitude Azimuth Distance (km) Brightness Sun altitude
Rises 04:54:07 0° 4° (N) 2,886 ? -12.3°
Reaches altitude 10° 04:56:27 10° 354° (N) 1,991 ? -12.0°
Maximum altitude 05:00:17 32° 292° (WNW) 1,093 ? -11.4°
Enters shadow 05:03:13 15° 237° (WSW) 1,685 ? -11.0°
